Location: College Rock
(37.2713°N, 119.1740°W)
Time: 03:58:18
(UTC+00:00)

Cosmos 614 Rocket - Pass Details

Date: 29 October 2020
Orbit: 734 x 763 km, 74.1° (Epoch: 23 November)

Event Time Altitude Azimuth Distance (km) Brightness Sun altitude
Rises 13:11:08 0° 210° (SSW) 3,189 7.0 -14.0°
Reaches altitude 10° 13:13:33 10° 215° (SW) 2,264 6.2 -13.5°
Maximum altitude 13:18:32 51° 291° (WNW) 938 4.1 -12.5°
Drops below altitude 10° 13:23:31 10° 7° (N) 2,260 6.4 -11.6°
Sets 13:25:57 0° 13° (NNE) 3,183 7.3 -11.1°
